Date,TemperatureHighF,TemperatureAvgF,TemperatureLowF,DewpointHighF,DewpointAvgF,DewpointLowF,HumidityHigh,HumidityAvg,HumidityLow,PressureMaxIn,PressureMinIn,WindSpeedMaxMPH,WindSpeedAvgMPH,GustSpeedMaxMPH,PrecipitationSumIn
2013-9-1,78,74,71,76,73,71,100,97,90,29.84,29.79,1,0,2,0.16
2013-9-2,77,73,69,76,73,69,100,98,90,29.81,29.67,3,0,4,2.25
2013-9-3,75,70,60,74,69,59,100,97,86,29.83,29.66,1,0,2,0.07
2013-9-4,74,65,58,64,60,57,98,84,61,29.93,29.82,1,0,6,0.00
2013-9-5,71,63,53,63,56,48,98,79,53,30.11,29.87,2,0,7,0.00
2013-9-6,64,56,48,53,47,42,95,75,53,30.23,30.10,1,0,5,0.00
2013-9-7,71,59,48,60,53,47,97,82,51,30.09,29.86,0,0,2,0.01
2013-9-8,73,64,55,64,57,43,98,78,50,30.05,29.77,5,0,11,0.00
2013-9-9,66,55,44,55,48,42,95,79,57,30.23,30.05,1,0,4,0.00
2013-9-10,75,66,57,72,65,54,99,95,90,30.15,30.01,1,0,4,0.01
2013-9-11,86,76,69,80,74,69,100,93,80,30.08,29.96,1,0,2,0.00
2013-9-12,80,73,69,75,72,69,99,94,81,29.96,29.66,1,0,6,0.54
2013-9-13,73,68,58,69,64,55,99,89,72,29.76,29.58,2,0,6,0.05
2013-9-14,63,56,50,55,52,49,96,86,70,30.06,29.76,7,0,9,0.00
2013-9-15,65,54,46,55,50,45,98,85,57,30.17,30.06,1,0,4,0.00
2013-9-16,65,57,48,57,54,40,98,88,70,30.22,30.02,6,0,9,0.05
2013-9-17,59,48,40,47,40,36,94,75,51,30.40,30.23,6,0,9,0.00
2013-9-18,66,52,40,54,46,39,99,84,54,30.33,30.16,1,0,2,0.00
2013-9-19,71,58,48,60,53,47,98,86,54,30.16,30.04,0,0,3,0.00
2013-9-20,72,60,47,62,56,46,99,88,63,30.07,29.99,0,0,2,0.00
2013-9-21,71,62,50,68,61,50,99,94,86,30.00,29.68,2,0,6,0.00
2013-9-22,69,61,49,68,56,44,99,84,61,29.84,29.61,2,0,9,0.83
2013-9-23,59,50,43,48,44,41,95,81,63,30.00,29.84,4,0,8,0.00
2013-9-24,64,51,41,50,44,39,95,79,50,30.01,29.82,2,0,7,0.00
2013-9-25,66,55,45,56,50,44,97,84,59,29.94,29.85,3,0,5,0.00
2013-9-26,62,42,51,55,13,-100,94,61,66,30.09,29.94,3,-256,6,0.00
2013-9-27,62,26,48,55,-30,-100,100,38,75,30.25,30.08,2,-542,5,0.00
2013-9-28,69,38,53,58,-5,-100,97,49,62,30.30,30.23,2,-390,6,0.00
2013-9-29,65,39,50,57,3,-100,99,55,48,30.23,30.08,2,-313,5,0.00
2013-9-30,67,43,47,55,13,-100,99,61,56,30.08,29.95,2,-256,4,0.00